Wind_Speed
17 17 18 18 18 19 19 17 16 15 14 13 12 11 10 10 9 8 7 7 7 6 6 5 5 5 6 6 5 5 5 4 4 4 4 3 2 3 3 3 3 3
17 17 18 19 19 19 19 18 17 16 15 14 13 13 12 12 11 10 9 9 8 8 8 7 6 6 7 7 7 6 6 5 5 5 4 4 3 3 3 3 3 2
18 18 18 19 19 19 19 19 19 18 17 16 15 14 13 13 13 12 11 10 9 9 9 8 8 8 8 8 8 7 7 7 6 5 5 4 4 3 3 3 3 2
19 18 18 18 19 19 19 20 20 20 19 18 16 15 14 14 14 14 13 12 10 10 10 9 9 9 9 9 9 8 8 8 7 7 6 6 5 4 4 3 3 2
19 18 18 18 20 21 21 22 22 21 20 19 18 17 16 15 15 15 14 13 11 10 10 10 10 10 10 10 10 9 9 8 8 8 8 7 7 6 5 4 3 3
20 19 19 19 20 21 22 22 22 23 22 20 20 19 18 17 17 16 15 13 12 11 10 10 10 10 10 11 11 10 9 9 9 8 8 8 8 7 6 5 5 5
21 20 20 20 20 21 22 22 23 23 23 22 22 21 20 19 18 17 16 15 14 13 11 10 10 10 10 11 11 11 11 10 10 9 9 9 9 9 8 8 7 7
22 21 21 21 21 22 22 22 22 23 23 24 24 23 21 20 19 18 17 17 16 14 13 12 11 11 11 11 11 11 12 11 11 10 10 10 10 10 10 10 9 9
23 23 23 23 23 22 22 22 22 22 23 23 24 24 23 22 21 20 19 18 17 16 15 14 13 13 13 12 11 11 12 12 12 12 11 11 11 11 12 12 12 11
25 24 24 24 24 24 23 22 22 23 23 23 23 23 24 24 23 22 21 20 19 18 17 16 16 15 15 14 13 13 12 12 13 13 13 12 12 12 13 14 14 13
27 26 25 26 25 25 24 23 23 24 24 23 23 23 24 24 25 25 24 23 21 20 19 18 18 18 17 17 16 15 15 14 14 14 14 14 14 14 14 15 15 15
28 27 27 26 26 26 25 24 25 25 25 24 24 23 23 24 25 26 26 25 24 23 22 21 21 20 20 19 18 17 17 16 16 16 16 16 16 16 16 16 16 16
29 29 28 27 27 26 26 26 26 26 26 26 25 25 25 25 25 25 25 26 25 25 25 24 23 23 22 22 21 20 19 18 18 17 17 17 17 17 18 18 18 18
28 29 29 29 28 28 27 27 27 27 27 27 27 27 26 25 25 25 25 25 26 26 26 25 25 25 24 23 22 22 21 20 19 19 19 19 19 19 20 20 20 20
26 27 28 29 29 29 28 28 28 28 28 28 29 28 27 27 27 26 26 26 26 27 26 26 27 26 25 24 23 23 23 22 21 21 21 20 20 21 22 22 22 22
24 25 27 29 29 29 29 29 29 29 29 29 29 29 29 29 28 28 28 28 28 28 28 28 28 27 26 25 25 24 24 23 23 23 23 23 23 23 23 23 24 24
23 25 27 28 29 29 29 29 30 30 31 30 30 30 30 30 30 30 29 29 29 29 29 30 30 29 27 26 26 25 25 25 25 24 25 25 25 25 25 24 25 25
24 25 26 28 29 30 30 30 30 31 32 32 32 31 30 31 31 31 30 30 30 30 30 30 30 29 28 28 27 26 26 26 25 25 26 26 27 27 27 26 26 26
24 25 27 28 29 29 30 30 30 31 32 33 33 32 32 32 31 31 31 31 31 31 31 30 29 29 29 28 28 27 27 27 26 26 26 27 27 28 28 27 27 27
26 26 27 28 28 29 29 30 30 31 31 32 33 33 33 32 31 31 30 30 31 31 31 30 29 28 28 29 28 28 27 28 28 27 27 28 28 29 29 29 28 28
27 27 28 27 27 27 28 29 30 30 31 31 32 32 32 32 31 31 31 31 30 30 30 30 29 28 28 29 29 28 28 29 29 29 29 28 28 29 29 29 29 29
27 28 28 27 26 27 28 29 30 30 30 30 31 30 30 30 30 31 30 30 30 30 31 30 27 27 27 28 27 28 29 30 31 30 30 29 29 28 29 29 29 29
27 28 28 27 26 28 29 30 30 31 31 30 30 29 29 28 29 29 29 30 30 31 31 30 27 26 27 27 26 27 29 30 30 30 30 30 29 28 29 29 29 29
28 28 27 27 27 28 28 30 31 32 32 32 31 30 29 29 28 29 29 29 30 30 31 30 28 27 28 28 27 28 29 29 29 30 31 31 30 29 29 29 29 28
29 28 28 28 28 27 27 28 30 32 34 34 33 32 31 30 30 30 30 30 30 30 29 29 27 27 28 28 28 29 29 29 29 30 30 31 30 30 29 29 28 27
30 30 29 29 28 27 27 26 28 31 34 34 34 33 33 32 32 32 31 30 29 29 29 28 27 26 26 27 28 29 30 30 30 30 30 30 31 31 31 30 28 27
Wind_Direction
218 212 210 210 210 210 211 212 214 216 214 212 214 218 220 221 223 222 222 225 224 222 216 203 197 203 207 208 204 194 184 173 161 155 151 141 135 129 120 114 103 91
221 216 212 212 213 214 213 213 213 214 214 212 213 217 220 223 224 222 223 224 226 227 225 217 211 212 212 212 211 208 203 193 177 168 169 169 170 170 148 130 119 107
222 221 216 214 215 216 217 216 213 212 212 212 214 216 220 225 227 225 224 225 226 228 229 226 222 221 220 218 218 217 214 208 198 189 192 191 189 193 179 153 140 131
220 222 219 216 216 217 218 218 215 213 212 213 214 217 221 225 229 228 228 228 229 231 232 231 229 227 227 225 226 226 223 219 211 204 205 208 205 203 196 179 166 153
218 220 220 218 217 217 218 219 218 216 214 214 215 218 222 227 231 231 231 232 233 234 233 233 234 234 233 232 233 236 236 234 227 217 213 217 216 213 210 200 192 186
216 218 218 218 219 219 219 219 220 220 219 217 218 219 222 227 231 232 232 234 236 237 235 235 236 238 238 237 236 239 243 247 245 236 227 226 226 223 221 217 211 207
217 218 219 220 220 221 221 220 221 223 222 222 221 220 222 226 231 232 233 234 236 236 237 237 239 241 242 241 238 238 240 245 250 250 246 241 238 235 231 227 224 220
218 219 220 222 222 222 223 222 223 223 224 224 224 223 223 225 228 231 232 234 236 237 237 238 240 244 247 246 243 241 239 241 245 248 250 249 247 246 244 238 231 227
221 220 221 222 223 224 224 225 226 226 226 225 225 225 225 226 227 229 231 232 235 237 238 240 243 246 249 250 250 248 247 246 246 246 247 247 247 248 249 247 241 235
225 222 221 222 223 223 224 225 227 229 230 228 226 226 226 227 228 230 231 232 233 235 238 241 245 248 251 251 251 251 251 251 251 251 250 250 248 248 249 251 248 243
228 226 224 223 223 224 223 224 226 229 231 232 231 230 228 228 229 230 232 233 234 236 239 241 244 247 251 252 251 250 249 249 251 253 254 255 255 254 254 254 252 250
229 229 228 227 225 225 224 224 225 227 229 232 233 234 233 231 231 232 233 235 236 238 239 240 242 244 247 250 252 252 250 249 249 251 253 256 258 259 259 259 258 256
231 231 232 231 230 228 227 226 226 226 227 229 231 234 234 234 234 234 235 236 237 238 239 240 241 242 243 244 246 250 251 251 251 251 252 254 257 260 261 262 262 261
232 233 234 234 233 232 230 229 229 228 228 228 230 231 233 234 235 235 236 237 238 239 239 240 240 240 240 241 242 245 248 250 252 254 254 253 254 257 259 261 262 263
232 234 235 235 235 234 233 232 232 232 231 230 230 231 232 233 234 234 234 235 237 238 239 240 240 240 239 240 241 243 245 248 251 253 254 254 253 253 255 258 260 262
231 232 233 234 235 235 235 235 235 235 235 233 233 233 233 234 235 235 235 235 235 237 238 239 240 241 240 241 242 243 245 247 249 252 253 254 254 253 253 255 257 259
229 229 231 233 235 237 238 238 238 238 238 237 236 235 235 235 236 237 237 237 237 237 237 239 240 240 240 241 242 243 245 247 248 249 250 252 253 254 254 254 255 257
228 228 229 230 233 236 238 240 240 240 239 239 238 237 237 237 237 238 239 240 241 241 240 240 241 241 241 241 242 243 244 246 246 246 247 248 250 253 255 254 254 255
231 229 227 228 230 234 236 238 239 241 241 241 240 240 240 239 239 239 240 241 242 244 244 244 244 244 244 244 243 244 244 246 246 246 246 246 248 251 253 254 255 255
235 230 227 226 228 231 234 236 238 241 242 243 243 242 242 243 243 243 243 243 244 246 247 248 248 247 247 247 246 245 245 246 247 247 246 246 247 249 251 253 254 255
239 235 231 229 229 231 233 235 237 239 242 244 245 245 246 246 246 247 247 247 247 248 249 249 249 249 249 249 248 248 247 247 248 248 247 246 246 247 250 252 254 255
241 239 237 235 233 232 232 233 235 237 239 242 244 245 247 247 248 249 250 250 251 250 250 250 249 249 249 249 249 249 248 247 247 248 247 247 246 247 249 251 253 255
243 242 241 240 238 234 232 231 233 235 237 239 241 242 243 245 247 249 249 251 251 251 252 251 249 249 249 249 249 249 249 249 248 248 248 247 247 247 248 250 252 254
244 244 244 244 242 239 235 232 233 235 237 238 240 241 241 243 244 245 246 247 249 250 252 252 249 248 249 248 248 249 249 250 250 249 248 248 248 248 249 252 253 254
244 244 245 245 244 241 239 237 236 235 236 238 239 240 242 243 243 244 245 246 248 250 251 251 249 248 248 248 247 248 249 250 251 250 249 248 249 249 251 254 255 255
244 244 244 244 242 240 240 241 240 236 235 236 238 239 242 243 244 245 246 247 249 251 251 251 249 248 248 248 247 247 248 250 250 251 250 250 250 251 253 255 255 255
Height
3221 3222 3224 3226 3228 3229 3231 3232 3234 3235 3237 3238 3240 3241 3243 3243 3244 3245 3246 3247 3249 3250 3250 3251 3251 3252 3253 3253 3254 3255 3255 3256 3256 3257 3257 3258 3259 3259 3259 3259 3260 3260
3220 3221 3223 3225 3227 3228 3230 3231 3233 3234 3236 3238 3239 3240 3241 3242 3243 3245 3246 3247 3248 3249 3250 3251 3251 3252 3253 3253 3254 3255 3255 3256 3256 3257 3258 3258 3259 3259 3259 3260 3260 3260
3219 3220 3222 3224 3226 3228 3229 3231 3232 3233 3235 3236 3238 3239 3240 3242 3243 3244 3245 3246 3248 3249 3250 3251 3251 3252 3253 3253 3254 3255 3255 3256 3256 3257 3258 3258 3259 3259 3260 3260 3260 3261
3217 3219 3221 3223 3225 3227 3228 3229 3231 3232 3234 3235 3237 3238 3239 3240 3242 3243 3244 3246 3247 3248 3249 3250 3251 3252 3253 3253 3254 3255 3255 3256 3256 3257 3258 3258 3259 3259 3260 3260 3260 3261
3216 3218 3220 3222 3223 3225 3226 3228 3229 3231 3232 3234 3235 3237 3238 3239 3241 3242 3244 3245 3246 3248 3249 3250 3251 3252 3253 3253 3254 3254 3255 3256 3256 3257 3258 3258 3259 3259 3260 3260 3261 3261
3215 3216 3218 3220 3222 3223 3225 3227 3228 3230 3231 3233 3234 3235 3237 3238 3239 3241 3243 3244 3245 3247 3248 3249 3250 3251 3252 3253 3253 3254 3254 3255 3256 3257 3257 3258 3259 3259 3260 3260 3261 3261
3213 3215 3217 3218 3220 3221 3223 3225 3227 3228 3230 3231 3232 3233 3235 3236 3238 3240 3241 3243 3244 3246 3247 3248 3249 3250 3251 3252 3253 3253 3254 3254 3255 3256 3257 3258 3258 3259 3259 3260 3260 3261
3211 3213 3215 3216 3218 3219 3221 3223 3225 3227 3228 3229 3230 3232 3233 3235 3237 3238 3240 3241 3243 3244 3246 3247 3248 3249 3250 3251 3252 3253 3253 3254 3254 3255 3256 3257 3257 3258 3259 3259 3260 3260
3209 3211 3213 3214 3216 3217 3219 3221 3223 3225 3227 3228 3229 3230 3231 3233 3234 3236 3238 3239 3241 3243 3244 3245 3247 3248 3249 3249 3251 3251 3252 3253 3253 3254 3254 3255 3256 3257 3257 3258 3259 3259
3207 3209 3210 3212 3214 3215 3218 3220 3222 3223 3225 3226 3228 3229 3230 3231 3232 3234 3235 3237 3239 3241 3242 3244 3245 3246 3247 3248 3249 3250 3251 3251 3252 3252 3253 3254 3255 3255 3256 3256 3257 3258
3204 3206 3208 3209 3211 3213 3216 3218 3219 3221 3223 3224 3226 3227 3228 3229 3230 3231 3233 3234 3236 3238 3240 3241 3243 3244 3245 3246 3247 3248 3249 3249 3250 3251 3251 3252 3253 3254 3254 3255 3256 3256
3202 3203 3205 3207 3209 3211 3213 3215 3217 3218 3220 3222 3224 3225 3226 3228 3229 3230 3231 3232 3234 3235 3237 3238 3240 3241 3242 3244 3245 3245 3246 3247 3248 3249 3250 3251 3252 3252 3253 3253 3254 3255
3199 3201 3203 3205 3207 3209 3211 3213 3214 3216 3218 3219 3221 3223 3224 3225 3227 3228 3229 3230 3231 3232 3234 3235 3236 3238 3239 3241 3242 3243 3244 3245 3246 3247 3248 3249 3250 3251 3251 3252 3252 3253
3196 3198 3200 3202 3204 3206 3208 3210 3211 3213 3215 3217 3218 3220 3221 3223 3224 3226 3227 3228 3229 3230 3231 3232 3233 3234 3236 3237 3239 3240 3241 3242 3243 3244 3246 3247 3248 3248 3249 3250 3250 3251
3194 3195 3197 3199 3201 3202 3205 3207 3208 3210 3212 3214 3215 3217 3219 3220 3221 3223 3224 3225 3226 3228 3229 3229 3230 3231 3232 3234 3236 3237 3238 3240 3241 3242 3243 3244 3245 3246 3246 3247 3248 3248
3190 3192 3194 3195 3197 3199 3201 3203 3205 3207 3208 3210 3212 3214 3216 3217 3218 3219 3221 3222 3223 3224 3225 3226 3227 3228 3230 3231 3233 3234 3235 3237 3238 3239 3240 3241 3242 3243 3243 3244 3245 3246
3187 3189 3190 3192 3194 3196 3198 3200 3202 3203 3205 3207 3208 3210 3212 3214 3215 3216 3217 3219 3220 3221 3222 3223 3224 3225 3227 3228 3230 3231 3232 3233 3235 3236 3237 3238 3239 3239 3240 3241 3242 3243
3183 3185 3187 3189 3191 3192 3194 3196 3198 3199 3201 3203 3204 3206 3208 3209 3211 3212 3214 3215 3216 3217 3218 3219 3220 3222 3224 3225 3226 3228 3229 3230 3231 3232 3233 3234 3235 3236 3237 3238 3238 3239
3180 3181 3183 3185 3187 3189 3191 3192 3194 3195 3197 3199 3201 3202 3204 3205 3207 3209 3210 3211 3212 3213 3215 3216 3218 3219 3220 3222 3223 3224 3226 3226 3227 3229 3230 3231 3232 3232 3233 3234 3235 3235
3176 3177 3179 3182 3184 3185 3187 3189 3190 3192 3194 3195 3197 3198 3200 3202 3204 3205 3206 3208 3209 3210 3211 3213 3214 3216 3217 3218 3220 3221 3222 3223 3224 3224 3225 3226 3227 3228 3229 3230 3231 3231
3172 3174 3176 3178 3180 3182 3183 3185 3187 3189 3191 3192 3193 3195 3196 3198 3200 3201 3203 3204 3205 3206 3207 3208 3210 3213 3214 3215 3217 3218 3219 3220 3220 3220 3221 3222 3223 3224 3225 3226 3227 3227
3168 3170 3172 3174 3176 3177 3179 3181 3183 3185 3187 3189 3190 3191 3193 3195 3196 3197 3199 3200 3202 3202 3203 3204 3207 3209 3210 3211 3213 3215 3215 3216 3216 3216 3217 3218 3219 3220 3221 3222 3223 3223
3165 3167 3169 3171 3172 3173 3175 3178 3180 3182 3184 3185 3186 3188 3189 3191 3192 3193 3195 3196 3197 3198 3199 3201 3203 3205 3206 3207 3209 3210 3211 3212 3212 3213 3213 3214 3215 3217 3217 3218 3218 3219
3160 3162 3165 3167 3168 3170 3172 3174 3176 3178 3180 3181 3183 3184 3186 3187 3188 3189 3190 3192 3193 3194 3196 3197 3199 3201 3202 3203 3205 3206 3207 3208 3209 3209 3209 3210 3211 3212 3213 3214 3214 3215
3156 3158 3160 3162 3165 3167 3169 3171 3173 3175 3176 3177 3179 3181 3183 3184 3185 3185 3187 3188 3189 3191 3192 3193 3195 3197 3199 3200 3201 3202 3203 3204 3205 3205 3205 3206 3207 3208 3209 3210 3211 3212
3152 3153 3155 3158 3160 3163 3165 3167 3169 3171 3172 3173 3175 3177 3179 3180 3181 3182 3183 3185 3186 3187 3188 3190 3192 3193 3195 3196 3197 3198 3199 3200 3200 3201 3202 3203 3204 3205 3205 3206 3207 3208